Regional Weather Roundup
Issued by NWS Charleston, WV

Home | Current Version | Previous Version | Text Only | Print | Product List | Glossary Off
Versions: 1 2 3 4 5 6 7 8 9 10 11 12 13 14 15 16 17 18 19 20 21 22 23 24 25 26 27

000
ASUS41 KRLX 162310
RWRRLX
West Virginia Regional Weather Roundup
National Weather Service Charleston WV
600 PM EST TUE JAN 16 2018

Note: "fair" indicates few or no clouds below 12,000 feet with no
significant weather and/or obstructions to visibility.

WVZ003-170000-
Northern Panhandle of West Virginia

CITY           SKY/WX    TMP DP  RH WIND       PRES   REMARKS
WHEELING       LGT SNOW  14   9  80 W9        30.39R WCI   2
$$

WVZ009-170000-
Northwest West Virginia

CITY           SKY/WX    TMP DP  RH WIND       PRES   REMARKS
PARKERSBURG    LGT SNOW  14   8  77 W8        30.49R WCI   3
$$

WVZ006-170000-
Western West Virginia

CITY           SKY/WX    TMP DP  RH WIND       PRES   REMARKS
HUNTINGTON     LGT SNOW  16  11  80 NW6       30.48R WCI   7
$$

WVZ015-170000-
West Central West Virginia

CITY           SKY/WX    TMP DP  RH WIND       PRES   REMARKS
CHARLESTON     LGT SNOW  18  14  84 NW3       30.44R VSB 1
$$

WVZ022-031-170000-
North Central West Virginia

CITY           SKY/WX    TMP DP  RH WIND       PRES   REMARKS
CLARKSBURG     LGT SNOW  22  17  81 W6        30.38R
MORGANTOWN     LGT SNOW  23  19  85 W3        30.37R FOG
$$

WVZ025-035-042-045-170000-
Southern West Virginia

CITY           SKY/WX    TMP DP  RH WIND       PRES   REMARKS
BECKLEY        LGT SNOW  21  17  84 N10       30.28R FOG     WCI  10
LOGAN          LGT SNOW  18  16  93 CALM      30.39R
BLUEFIELD      FLURRIES  26  24  92 VRB7      30.24S
LEWISBURG      LGT SNOW  32  31  96 CALM      30.25S
$$

WVZ047-170000-
Northern Mountains of West Virginia

CITY           SKY/WX    TMP DP  RH WIND       PRES   REMARKS
ELKINS         LGT SNOW  24  19  81 NW12      30.31R
$$

WVZ052-170000-
Eastern Panhandle of West Virginia

CITY           SKY/WX    TMP DP  RH WIND       PRES   REMARKS
MARTINSBURG    CLOUDY    30  26  85 N3        30.34S
PETERSBURG     LGT SNOW  27  25  93 CALM      30.32S
$$




USA.gov is the U.S. government's official web portal to all federal, state and local government web resources and services.